Location: Bluff Heights
(33.7692°N, 118.1592°W)
Time: 15:15:59
(UTC+00:00)

First-Move - Visible Passes

Search period start: 25 September 2021 00:00
Search period end: 05 October 2021 00:00
Orbit: 576 x 665 km, 97.6° (Epoch: 24 September)

Date Brightness Start Highest point End Pass type
(mag) Time Alt. Az. Time Alt. Az. Time Alt. Az.
25 Sep ? 12:33:19 10° N 12:37:31 78° WNW 12:41:37 10° SSW visible
26 Sep ? 11:17:38 10° E 11:18:30 11° E 11:19:23 10° ESE visible
26 Sep ? 12:50:54 10° N 12:54:54 45° WNW 12:58:49 10° SSW visible
27 Sep ? 11:33:15 10° NE 11:36:05 18° E 11:38:52 10° SE visible
27 Sep ? 13:08:40 10° NNW 13:12:13 28° WNW 13:15:44 10° SW visible
28 Sep ? 11:50:00 10° NE 11:53:37 28° E 11:57:10 10° SSE visible
29 Sep ? 12:07:05 10° NNE 12:11:06 47° E 12:15:02 10° S visible
30 Sep ? 12:24:23 10° NNE 12:28:32 82° ESE 12:32:36 10° S visible
01 Oct ? 12:41:51 10° N 12:45:55 58° WNW 12:49:55 10° SSW visible
02 Oct ? 11:24:52 10° ENE 11:27:01 14° E 11:29:08 10° SE visible
02 Oct ? 12:59:30 10° N 13:03:16 34° WNW 13:06:58 10° SW visible
03 Oct ? 11:41:18 10° NE 11:44:33 22° E 11:47:46 10° SSE visible
03 Oct ? 13:17:25 10° NNW 13:20:34 22° WNW 13:23:41 10° WSW visible
04 Oct ? 11:58:13 10° NNE 12:02:02 37° E 12:05:49 10° SSE visible
